Overview Statistics Trail Chart Weather Telemetry Raw packets
 

This is the latest recevied weather packets stored in our database for station/object G4KVI. If no packets are shown the sender has not sent any weather packets the latest 10 day(s).

<< 37 38 39 40 41 42 43 >>
Time Temp. Humidity Pressure Rain* Wind** Luminosity Snow
1788342004 16.67° C 91% 1020.7 hPa 1.02 mm - 158 W/m² -
1788341704 16.67° C 91% 1020.7 hPa 1.02 mm - 172 W/m² -
1788341404 16.67° C 91% 1020.6 hPa 1.02 mm - 119 W/m² -
1788341104 16.67° C 91% 1020.7 hPa 1.02 mm - 91 W/m² -
1788340804 16.67° C 90% 1020.8 hPa 1.02 mm - 135 W/m² -
1788340504 16.67° C 90% 1020.7 hPa 1.02 mm - 91 W/m² -
1788340204 16.67° C 89% 1020.9 hPa 1.02 mm - 100 W/m² -
1788339904 17.22° C 89% 1021.1 hPa 0.76 mm - 69 W/m² -
1788339604 17.22° C 89% 1021 hPa 0.51 mm - 69 W/m² -
1788339304 17.22° C 88% 1020.7 hPa 0.51 mm - 96 W/m² -
1788339004 17.22° C 88% 1021 hPa 0.25 mm - 129 W/m² -
1788338704 17.22° C 87% 1020.8 hPa 0 mm - 221 W/m² -
1788338404 17.22° C 87% 1021.1 hPa 0 mm - 196 W/m² -
1788338104 17.22° C 88% 1020.9 hPa 0 mm - 125 W/m² -
1788337804 17.22° C 89% 1020.8 hPa 0 mm - 150 W/m² -
1788337504 17.22° C 89% 1020.7 hPa 0 mm - 173 W/m² -
1788337204 17.22° C 90% 1021.1 hPa 0 mm - 156 W/m² -
1788336904 16.67° C 90% 1021.1 hPa 0 mm - 105 W/m² -
1788336604 16.67° C 90% 1021.1 hPa 0 mm - 93 W/m² -
1788336304 16.67° C 90% 1021 hPa 0 mm - 95 W/m² -
1788336004 16.67° C 90% 1021.1 hPa 0 mm - 106 W/m² -
1788335704 16.67° C 90% 1021.1 hPa 0 mm - 59 W/m² -
1788335404 16.67° C 89% 1021.2 hPa 0 mm - 48 W/m² -
1788335104 16.67° C 89% 1021.1 hPa 0 mm - 56 W/m² -
1788334804 16.67° C 89% 1020.8 hPa 0 mm - 56 W/m² -

* Rain latest hour (hover to see other rain measurements)
** Current wind speed in m/s (hover to see current wind gust speed)